Year,Month,Day,Hour,Minute,Value (Times are PST for temperature in C)
2006,07,21,00,00,19.70
2006,07,21,00,01,19.70
2006,07,21,00,02,19.70
2006,07,21,00,03,19.70
2006,07,21,00,04,19.70
2006,07,21,00,05,19.60
2006,07,21,00,06,19.60
2006,07,21,00,07,19.60
2006,07,21,00,08,19.60
2006,07,21,00,09,19.60
2006,07,21,00,10,19.60
2006,07,21,00,11,19.60
2006,07,21,00,12,19.60
2006,07,21,00,13,19.60
2006,07,21,00,14,19.60
2006,07,21,00,15,19.50
2006,07,21,00,16,19.50
2006,07,21,00,17,19.50
2006,07,21,00,18,19.50
2006,07,21,00,19,19.50
2006,07,21,00,20,19.50
2006,07,21,00,21,19.40
2006,07,21,00,22,19.40
2006,07,21,00,23,19.40
2006,07,21,00,24,19.40
2006,07,21,00,25,19.40
2006,07,21,00,26,19.30
2006,07,21,00,27,19.30
2006,07,21,00,28,19.30
2006,07,21,00,29,19.30
2006,07,21,00,30,19.20
2006,07,21,00,31,19.20
2006,07,21,00,32,19.20
2006,07,21,00,33,19.20
2006,07,21,00,34,19.20
2006,07,21,00,35,19.20
2006,07,21,00,36,19.20
2006,07,21,00,37,19.20
2006,07,21,00,38,19.20
2006,07,21,00,39,19.10
2006,07,21,00,40,19.10
2006,07,21,00,41,19.10
2006,07,21,00,42,19.10
2006,07,21,00,43,19.10
2006,07,21,00,44,19.10
2006,07,21,00,45,19.10
2006,07,21,00,46,19.10
2006,07,21,00,47,19.10
2006,07,21,00,48,19.00
2006,07,21,00,49,19.00
2006,07,21,00,50,19.00
2006,07,21,00,51,19.00
2006,07,21,00,52,19.00
2006,07,21,00,53,19.00
2006,07,21,00,54,19.00
2006,07,21,00,55,19.00
2006,07,21,00,56,19.00
2006,07,21,00,57,19.00
2006,07,21,00,58,19.00
2006,07,21,00,59,18.90
2006,07,21,01,00,18.90
2006,07,21,01,01,18.90
2006,07,21,01,02,18.90
2006,07,21,01,03,18.80
2006,07,21,01,04,18.80
2006,07,21,01,05,18.80
2006,07,21,01,06,18.70
2006,07,21,01,07,18.70
2006,07,21,01,08,18.70
2006,07,21,01,09,18.70
2006,07,21,01,10,18.70
2006,07,21,01,11,18.70
2006,07,21,01,12,18.70
2006,07,21,01,13,18.70
2006,07,21,01,14,18.70
2006,07,21,01,15,18.70
2006,07,21,01,16,18.60
2006,07,21,01,17,18.60
2006,07,21,01,18,18.60
2006,07,21,01,19,18.60
2006,07,21,01,20,18.50
2006,07,21,01,21,18.50
2006,07,21,01,22,18.50
2006,07,21,01,23,18.50
2006,07,21,01,24,18.50
2006,07,21,01,25,18.50
2006,07,21,01,26,18.50
2006,07,21,01,27,18.50
2006,07,21,01,28,18.50
2006,07,21,01,29,18.50
2006,07,21,01,30,18.40
2006,07,21,01,31,18.40
2006,07,21,01,32,18.40
2006,07,21,01,33,18.40
2006,07,21,01,34,18.40
2006,07,21,01,35,18.30
2006,07,21,01,36,18.30
2006,07,21,01,37,18.30
2006,07,21,01,38,18.30
2006,07,21,01,39,18.30
2006,07,21,01,40,18.20
2006,07,21,01,41,18.20
2006,07,21,01,42,18.20
2006,07,21,01,43,18.20
2006,07,21,01,44,18.10
2006,07,21,01,45,18.10
2006,07,21,01,46,18.10
2006,07,21,01,47,18.00
2006,07,21,01,48,18.00
2006,07,21,01,49,18.00
2006,07,21,01,50,17.90
2006,07,21,01,51,17.90
2006,07,21,01,52,17.90
2006,07,21,01,53,17.90
2006,07,21,01,54,17.80
2006,07,21,01,55,17.80
2006,07,21,01,56,17.80
2006,07,21,01,57,17.80
2006,07,21,01,58,17.80
2006,07,21,01,59,17.80
2006,07,21,02,00,17.80
2006,07,21,02,01,17.70
2006,07,21,02,02,17.70
2006,07,21,02,03,17.70
2006,07,21,02,04,17.70
2006,07,21,02,05,17.70
2006,07,21,02,06,17.60
2006,07,21,02,07,17.60
2006,07,21,02,08,17.60
2006,07,21,02,09,17.60
2006,07,21,02,10,17.60
2006,07,21,02,11,17.60
2006,07,21,02,12,17.50
2006,07,21,02,13,17.50
2006,07,21,02,14,17.50
2006,07,21,02,15,17.50
2006,07,21,02,16,17.40
2006,07,21,02,17,17.40
2006,07,21,02,18,17.40
2006,07,21,02,19,17.40
2006,07,21,02,20,17.40
2006,07,21,02,21,17.40
2006,07,21,02,22,17.30
2006,07,21,02,23,17.30
2006,07,21,02,24,17.30
2006,07,21,02,25,17.30
2006,07,21,02,26,17.30
2006,07,21,02,27,17.30
2006,07,21,02,28,17.20
2006,07,21,02,29,17.20
2006,07,21,02,30,17.20
2006,07,21,02,31,17.20
2006,07,21,02,32,17.20
2006,07,21,02,33,17.20
2006,07,21,02,34,17.20
2006,07,21,02,35,17.20
2006,07,21,02,36,17.10
2006,07,21,02,37,17.10
2006,07,21,02,38,17.10
2006,07,21,02,39,17.10
2006,07,21,02,40,17.10
2006,07,21,02,41,17.10
2006,07,21,02,42,17.10
2006,07,21,02,43,17.10
2006,07,21,02,44,17.00
2006,07,21,02,45,17.00
2006,07,21,02,46,17.00
2006,07,21,02,47,17.00
2006,07,21,02,48,16.90
2006,07,21,02,49,16.90
2006,07,21,02,50,16.90
2006,07,21,02,51,16.90
2006,07,21,02,52,16.90
2006,07,21,02,53,16.90
2006,07,21,02,54,16.80
2006,07,21,02,55,16.80
2006,07,21,02,56,16.80
2006,07,21,02,57,16.80
2006,07,21,02,58,16.80
2006,07,21,02,59,16.80
2006,07,21,03,00,16.80
2006,07,21,03,01,16.80
2006,07,21,03,02,16.80
2006,07,21,03,03,16.80
2006,07,21,03,04,16.80
2006,07,21,03,05,16.80
2006,07,21,03,06,16.80
2006,07,21,03,07,16.80
2006,07,21,03,08,16.80
2006,07,21,03,09,16.80
2006,07,21,03,10,16.80
2006,07,21,03,11,16.80
2006,07,21,03,12,16.80
2006,07,21,03,13,16.80
2006,07,21,03,14,16.80
2006,07,21,03,15,16.80
2006,07,21,03,16,16.80
2006,07,21,03,17,16.80
2006,07,21,03,18,16.80
2006,07,21,03,19,16.80
2006,07,21,03,20,16.70
2006,07,21,03,21,16.70
2006,07,21,03,22,16.70
2006,07,21,03,23,16.70
2006,07,21,03,24,16.70
2006,07,21,03,25,16.60
2006,07,21,03,26,16.60
2006,07,21,03,27,16.60
2006,07,21,03,28,16.60
2006,07,21,03,29,16.60
2006,07,21,03,30,16.50
2006,07,21,03,31,16.50
2006,07,21,03,32,16.50
2006,07,21,03,33,16.50
2006,07,21,03,34,16.50
2006,07,21,03,35,16.50
2006,07,21,03,36,16.50
2006,07,21,03,37,16.50
2006,07,21,03,38,16.50
2006,07,21,03,39,16.50
2006,07,21,03,40,16.50
2006,07,21,03,41,16.50
2006,07,21,03,42,16.50
2006,07,21,03,43,16.50
2006,07,21,03,44,16.50
2006,07,21,03,45,16.50
2006,07,21,03,46,16.50
2006,07,21,03,47,16.50
2006,07,21,03,48,16.50
2006,07,21,03,49,16.50
2006,07,21,03,50,16.40
2006,07,21,03,51,16.40
2006,07,21,03,52,16.40
2006,07,21,03,53,16.40
2006,07,21,03,54,16.40
2006,07,21,03,55,16.40
2006,07,21,03,56,16.30
2006,07,21,03,57,16.30
2006,07,21,03,58,16.30
2006,07,21,03,59,16.30
2006,07,21,04,00,16.30
2006,07,21,04,01,16.30
2006,07,21,04,02,16.20
2006,07,21,04,03,16.20
2006,07,21,04,04,16.20
2006,07,21,04,05,16.20
2006,07,21,04,06,16.20
2006,07,21,04,07,16.10
2006,07,21,04,08,16.10
2006,07,21,04,09,16.10
2006,07,21,04,10,16.10
2006,07,21,04,11,16.10
2006,07,21,04,12,16.10
2006,07,21,04,13,16.10
2006,07,21,04,14,16.10
2006,07,21,04,15,16.20
2006,07,21,04,16,16.20
2006,07,21,04,17,16.20
2006,07,21,04,18,16.20
2006,07,21,04,19,16.10
2006,07,21,04,20,16.10
2006,07,21,04,21,16.10
2006,07,21,04,22,16.10
2006,07,21,04,23,16.10
2006,07,21,04,24,16.10
2006,07,21,04,25,16.10
2006,07,21,04,26,16.10
2006,07,21,04,27,16.00
2006,07,21,04,28,16.00
2006,07,21,04,29,16.00
2006,07,21,04,30,16.00
2006,07,21,04,31,16.00
2006,07,21,04,32,16.00
2006,07,21,04,33,16.00
2006,07,21,04,34,15.90
2006,07,21,04,35,15.90
2006,07,21,04,36,15.90
2006,07,21,04,37,15.90
2006,07,21,04,38,15.90
2006,07,21,04,39,15.90
2006,07,21,04,40,15.90
2006,07,21,04,41,15.90
2006,07,21,04,42,15.90
2006,07,21,04,43,15.90
2006,07,21,04,44,15.90
2006,07,21,04,45,15.90
2006,07,21,04,46,15.90
2006,07,21,04,47,16.00
2006,07,21,04,48,16.00
2006,07,21,04,49,16.00
2006,07,21,04,50,16.00
2006,07,21,04,51,16.00
2006,07,21,04,52,16.00
2006,07,21,04,53,16.00
2006,07,21,04,54,16.00
2006,07,21,04,55,16.00
2006,07,21,04,56,16.00
2006,07,21,04,57,16.00
2006,07,21,04,58,15.90
2006,07,21,04,59,15.90
2006,07,21,05,00,15.90
2006,07,21,05,01,15.90
2006,07,21,05,02,15.90
2006,07,21,05,03,15.90
2006,07,21,05,04,15.90
2006,07,21,05,05,15.90
2006,07,21,05,06,15.80
2006,07,21,05,07,15.90
2006,07,21,05,08,15.90
2006,07,21,05,09,15.90
2006,07,21,05,10,15.90
2006,07,21,05,11,16.00
2006,07,21,05,12,16.00
2006,07,21,05,13,16.00
2006,07,21,05,14,16.10
2006,07,21,05,15,16.10
2006,07,21,05,16,16.10
2006,07,21,05,17,16.10
2006,07,21,05,18,16.20
2006,07,21,05,19,16.20
2006,07,21,05,20,16.20
2006,07,21,05,21,16.20
2006,07,21,05,22,16.20
2006,07,21,05,23,16.20
2006,07,21,05,24,16.20
2006,07,21,05,25,16.20
2006,07,21,05,26,16.20
2006,07,21,05,27,16.20
2006,07,21,05,28,16.20
2006,07,21,05,29,16.10
2006,07,21,05,30,16.10
2006,07,21,05,31,16.10
2006,07,21,05,32,16.10
2006,07,21,05,33,16.10
2006,07,21,05,34,16.10
2006,07,21,05,35,16.10
2006,07,21,05,36,16.10
2006,07,21,05,37,16.10
2006,07,21,05,38,16.10
2006,07,21,05,39,16.00
2006,07,21,05,40,16.00
2006,07,21,05,41,16.00
2006,07,21,05,42,16.00
2006,07,21,05,43,16.00
2006,07,21,05,44,16.00
2006,07,21,05,45,16.00
2006,07,21,05,46,16.00
2006,07,21,05,47,16.00
2006,07,21,05,48,16.00
2006,07,21,05,49,16.00
2006,07,21,05,50,16.00
2006,07,21,05,51,16.00
2006,07,21,05,52,15.90
2006,07,21,05,53,15.90
2006,07,21,05,54,15.90
2006,07,21,05,55,15.90
2006,07,21,05,56,15.90
2006,07,21,05,57,15.90
2006,07,21,05,58,15.90
2006,07,21,05,59,15.90
2006,07,21,06,00,15.90
2006,07,21,06,01,15.90
2006,07,21,06,02,15.90
2006,07,21,06,03,16.00
2006,07,21,06,04,16.00
2006,07,21,06,05,16.00
2006,07,21,06,06,16.00
2006,07,21,06,07,16.00
2006,07,21,06,08,16.00
2006,07,21,06,09,16.00
2006,07,21,06,10,16.00
2006,07,21,06,11,16.00
2006,07,21,06,12,16.00
2006,07,21,06,13,16.00
2006,07,21,06,14,16.00
2006,07,21,06,15,16.00
2006,07,21,06,16,16.00
2006,07,21,06,17,16.00
2006,07,21,06,18,16.00
2006,07,21,06,19,16.00
2006,07,21,06,20,16.00
2006,07,21,06,21,16.00
2006,07,21,06,22,16.10
2006,07,21,06,23,16.10
2006,07,21,06,24,16.10
2006,07,21,06,25,16.10
2006,07,21,06,26,16.20
2006,07,21,06,27,16.20
2006,07,21,06,28,16.20
2006,07,21,06,29,16.20
2006,07,21,06,30,16.30
2006,07,21,06,31,16.40
2006,07,21,06,32,16.40
2006,07,21,06,33,16.60
2006,07,21,06,34,16.70
2006,07,21,06,35,16.80
2006,07,21,06,36,16.90
2006,07,21,06,37,17.00
2006,07,21,06,38,17.10
2006,07,21,06,39,17.10
2006,07,21,06,40,17.20
2006,07,21,06,41,17.20
2006,07,21,06,42,17.30
2006,07,21,06,43,17.30
2006,07,21,06,44,17.30
2006,07,21,06,45,17.30
2006,07,21,06,46,17.40
2006,07,21,06,47,17.40
2006,07,21,06,48,17.40
2006,07,21,06,49,17.50
2006,07,21,06,50,17.50
2006,07,21,06,51,17.60
2006,07,21,06,52,17.70
2006,07,21,06,53,17.80
2006,07,21,06,54,17.90
2006,07,21,06,55,18.00
2006,07,21,06,56,18.00
2006,07,21,06,57,18.10
2006,07,21,06,58,18.20
2006,07,21,06,59,18.20
2006,07,21,07,00,18.30
2006,07,21,07,01,18.30
2006,07,21,07,02,18.40
2006,07,21,07,03,18.40
2006,07,21,07,04,18.50
2006,07,21,07,05,18.60
2006,07,21,07,06,18.60
2006,07,21,07,07,18.60
2006,07,21,07,08,18.60
2006,07,21,07,09,18.70
2006,07,21,07,10,18.70
2006,07,21,07,11,18.80
2006,07,21,07,12,18.80
2006,07,21,07,13,18.90
2006,07,21,07,14,18.90
2006,07,21,07,15,18.90
2006,07,21,07,16,19.00
2006,07,21,07,17,19.00
2006,07,21,07,18,19.10
2006,07,21,07,19,19.20
2006,07,21,07,20,19.20
2006,07,21,07,21,19.30
2006,07,21,07,22,19.30
2006,07,21,07,23,19.40
2006,07,21,07,24,19.40
2006,07,21,07,25,19.50
2006,07,21,07,26,19.60
2006,07,21,07,27,19.60
2006,07,21,07,28,19.80
2006,07,21,07,29,19.90
2006,07,21,07,30,20.00
2006,07,21,07,31,20.10
2006,07,21,07,32,20.20
2006,07,21,07,33,20.30
2006,07,21,07,34,20.40
2006,07,21,07,35,20.40
2006,07,21,07,36,20.50
2006,07,21,07,37,20.60
2006,07,21,07,38,20.70
2006,07,21,07,39,20.80
2006,07,21,07,40,21.00
2006,07,21,07,41,21.10
2006,07,21,07,42,21.10
2006,07,21,07,43,21.20
2006,07,21,07,44,21.20
2006,07,21,07,45,21.30
2006,07,21,07,46,21.30
2006,07,21,07,47,21.30
2006,07,21,07,48,21.40
2006,07,21,07,49,21.40
2006,07,21,07,50,21.50
2006,07,21,07,51,21.60
2006,07,21,07,52,21.60
2006,07,21,07,53,21.70
2006,07,21,07,54,21.70
2006,07,21,07,55,21.80
2006,07,21,07,56,21.90
2006,07,21,07,57,22.00
2006,07,21,07,58,22.20
2006,07,21,07,59,22.30
2006,07,21,08,00,22.30
2006,07,21,08,01,22.40
2006,07,21,08,02,22.50
2006,07,21,08,03,22.60
2006,07,21,08,04,22.70
2006,07,21,08,05,22.80
2006,07,21,08,06,22.90
2006,07,21,08,07,23.00
2006,07,21,08,08,23.20
2006,07,21,08,09,23.20
2006,07,21,08,10,23.20
2006,07,21,08,11,23.20
2006,07,21,08,12,23.10
2006,07,21,08,13,23.10
2006,07,21,08,14,23.00
2006,07,21,08,15,23.00
2006,07,21,08,16,23.00
2006,07,21,08,17,22.90
2006,07,21,08,18,22.90
2006,07,21,08,19,22.80
2006,07,21,08,20,22.70
2006,07,21,08,21,22.60
2006,07,21,08,22,22.60
2006,07,21,08,23,22.60
2006,07,21,08,24,22.60
2006,07,21,08,25,22.70
2006,07,21,08,26,22.70
2006,07,21,08,27,22.80
2006,07,21,08,28,22.90
2006,07,21,08,29,23.00
2006,07,21,08,30,23.00
2006,07,21,08,31,23.10
2006,07,21,08,32,23.20
2006,07,21,08,33,23.30
2006,07,21,08,34,23.30
2006,07,21,08,35,23.30
2006,07,21,08,36,23.40
2006,07,21,08,37,23.40
2006,07,21,08,38,23.40
2006,07,21,08,39,23.50
2006,07,21,08,40,23.60
2006,07,21,08,41,23.60
2006,07,21,08,42,23.60
2006,07,21,08,43,23.60
2006,07,21,08,44,23.50
2006,07,21,08,45,23.50
2006,07,21,08,46,23.50
2006,07,21,08,47,23.50
2006,07,21,08,48,23.60
2006,07,21,08,49,23.70
2006,07,21,08,50,23.80
2006,07,21,08,51,23.90
2006,07,21,08,52,24.00
2006,07,21,08,53,24.00
2006,07,21,08,54,24.10
2006,07,21,08,55,24.20
2006,07,21,08,56,24.30
2006,07,21,08,57,24.30
2006,07,21,08,58,24.40
2006,07,21,08,59,24.40
2006,07,21,09,00,24.50
2006,07,21,09,01,24.50
2006,07,21,09,02,24.60
2006,07,21,09,03,24.70
2006,07,21,09,04,24.80
2006,07,21,09,05,24.80
2006,07,21,09,06,24.90
2006,07,21,09,07,24.90
2006,07,21,09,08,24.90
2006,07,21,09,09,24.90
2006,07,21,09,10,24.90
2006,07,21,09,11,25.00
2006,07,21,09,12,25.00
2006,07,21,09,13,25.10
2006,07,21,09,14,25.20
2006,07,21,09,15,25.20
2006,07,21,09,16,25.20
2006,07,21,09,17,25.10
2006,07,21,09,18,25.00
2006,07,21,09,19,24.90
2006,07,21,09,20,24.90
2006,07,21,09,21,24.80
2006,07,21,09,22,24.90
2006,07,21,09,23,25.00
2006,07,21,09,24,25.10
2006,07,21,09,25,25.10
2006,07,21,09,26,25.00
2006,07,21,09,27,25.00
2006,07,21,09,28,25.00
2006,07,21,09,29,25.00
2006,07,21,09,30,25.10
2006,07,21,09,31,25.10
2006,07,21,09,32,25.20
2006,07,21,09,33,25.30
2006,07,21,09,34,25.40
2006,07,21,09,35,25.50
2006,07,21,09,36,25.50
2006,07,21,09,37,25.60
2006,07,21,09,38,25.70
2006,07,21,09,39,25.80
2006,07,21,09,40,25.90
2006,07,21,09,41,26.00
2006,07,21,09,42,26.10
2006,07,21,09,43,26.20
2006,07,21,09,44,26.20
2006,07,21,09,45,26.10
2006,07,21,09,46,26.10
2006,07,21,09,47,26.00
2006,07,21,09,48,25.90
2006,07,21,09,49,25.90
2006,07,21,09,50,26.00
2006,07,21,09,51,26.10
2006,07,21,09,52,26.20
2006,07,21,09,53,26.20
2006,07,21,09,54,26.30
2006,07,21,09,55,26.20
2006,07,21,09,56,26.00
2006,07,21,09,57,25.90
2006,07,21,09,58,25.90
2006,07,21,09,59,25.80
2006,07,21,10,00,25.70
2006,07,21,10,01,25.70
2006,07,21,10,02,25.60
2006,07,21,10,03,25.60
2006,07,21,10,04,25.60
2006,07,21,10,05,25.70
2006,07,21,10,06,25.80
2006,07,21,10,07,25.90
2006,07,21,10,08,25.90
2006,07,21,10,09,25.90
2006,07,21,10,10,25.90
2006,07,21,10,11,25.80
2006,07,21,10,12,25.70
2006,07,21,10,13,25.50
2006,07,21,10,14,25.50
2006,07,21,10,15,25.60
2006,07,21,10,16,25.60
2006,07,21,10,17,25.50
2006,07,21,10,18,25.40
2006,07,21,10,19,25.40
2006,07,21,10,20,25.40
2006,07,21,10,21,25.40
2006,07,21,10,22,25.40
2006,07,21,10,23,25.30
2006,07,21,10,24,25.30
2006,07,21,10,25,25.30
2006,07,21,10,26,25.30
2006,07,21,10,27,25.20
2006,07,21,10,28,25.20
2006,07,21,10,29,25.20
2006,07,21,10,30,25.20
2006,07,21,10,31,25.20
2006,07,21,10,32,25.30
2006,07,21,10,33,25.30
2006,07,21,10,34,25.30
2006,07,21,10,35,25.30
2006,07,21,10,36,25.40
2006,07,21,10,37,25.40
2006,07,21,10,38,25.50
2006,07,21,10,39,25.50
2006,07,21,10,40,25.60
2006,07,21,10,41,25.70
2006,07,21,10,42,25.70
2006,07,21,10,43,25.60
2006,07,21,10,44,25.60
2006,07,21,10,45,25.60
2006,07,21,10,46,25.60
2006,07,21,10,47,25.70
2006,07,21,10,48,25.80
2006,07,21,10,49,25.90
2006,07,21,10,50,26.00
2006,07,21,10,51,26.10
2006,07,21,10,52,26.20
2006,07,21,10,53,26.30
2006,07,21,10,54,26.30
2006,07,21,10,55,26.40
2006,07,21,10,56,26.50
2006,07,21,10,57,26.60
2006,07,21,10,58,26.60
2006,07,21,10,59,26.60
2006,07,21,11,00,26.50
2006,07,21,11,01,26.40
2006,07,21,11,02,26.40
2006,07,21,11,03,26.30
2006,07,21,11,04,26.30
2006,07,21,11,05,26.30
2006,07,21,11,06,26.30
2006,07,21,11,07,26.30
2006,07,21,11,08,26.20
2006,07,21,11,09,26.20
2006,07,21,11,10,26.30
2006,07,21,11,11,26.40
2006,07,21,11,12,26.50
2006,07,21,11,13,26.60
2006,07,21,11,14,26.60
2006,07,21,11,15,26.70
2006,07,21,11,16,26.70
2006,07,21,11,17,26.80
2006,07,21,11,18,26.80
2006,07,21,11,19,26.80
2006,07,21,11,20,26.70
2006,07,21,11,21,26.70
2006,07,21,11,22,26.60
2006,07,21,11,23,26.50
2006,07,21,11,24,26.50
2006,07,21,11,25,26.40
2006,07,21,11,26,26.40
2006,07,21,11,27,26.40
2006,07,21,11,28,26.40
2006,07,21,11,29,26.50
2006,07,21,11,30,26.60
2006,07,21,11,31,26.70
2006,07,21,11,32,26.80
2006,07,21,11,33,26.80
2006,07,21,11,34,26.90
2006,07,21,11,35,26.90
2006,07,21,11,36,26.90
2006,07,21,11,37,26.80
2006,07,21,11,38,26.80
2006,07,21,11,39,26.80
2006,07,21,11,40,26.80
2006,07,21,11,41,26.80
2006,07,21,11,42,26.90
2006,07,21,11,43,27.00
2006,07,21,11,44,27.20
2006,07,21,11,45,27.20
2006,07,21,11,46,27.20
2006,07,21,11,47,27.20
2006,07,21,11,48,27.30
2006,07,21,11,49,27.40
2006,07,21,11,50,27.50
2006,07,21,11,51,27.60
2006,07,21,11,52,27.70
2006,07,21,11,53,27.70
2006,07,21,11,54,27.70
2006,07,21,11,55,27.80
2006,07,21,11,56,27.90
2006,07,21,11,57,27.90
2006,07,21,11,58,28.00
2006,07,21,11,59,28.00
2006,07,21,12,00,28.00
2006,07,21,12,01,27.90
2006,07,21,12,02,27.80
2006,07,21,12,03,27.80
2006,07,21,12,04,27.80
2006,07,21,12,05,27.90
2006,07,21,12,06,28.00
2006,07,21,12,07,28.20
2006,07,21,12,08,28.40
2006,07,21,12,09,28.60
2006,07,21,12,10,28.70
2006,07,21,12,11,28.90
2006,07,21,12,12,29.10
2006,07,21,12,13,29.30
2006,07,21,12,14,29.40
2006,07,21,12,15,29.60
2006,07,21,12,16,29.80
2006,07,21,12,17,29.90
2006,07,21,12,18,29.90
2006,07,21,12,19,29.90
2006,07,21,12,20,29.90
2006,07,21,12,21,30.00
2006,07,21,12,22,30.00
2006,07,21,12,23,30.00
2006,07,21,12,24,29.90
2006,07,21,12,25,29.80
2006,07,21,12,26,29.90
2006,07,21,12,27,30.00
2006,07,21,12,28,30.10
2006,07,21,12,29,30.30
2006,07,21,12,30,30.30
2006,07,21,12,31,30.30
2006,07,21,12,32,30.30
2006,07,21,12,33,30.30
2006,07,21,12,34,30.40
2006,07,21,12,35,30.40
2006,07,21,12,36,30.30
2006,07,21,12,37,30.30
2006,07,21,12,38,30.20
2006,07,21,12,39,30.10
2006,07,21,12,40,29.90
2006,07,21,12,41,29.80
2006,07,21,12,42,29.70
2006,07,21,12,43,29.60
2006,07,21,12,44,29.50
2006,07,21,12,45,29.40
2006,07,21,12,46,29.40
2006,07,21,12,47,29.30
2006,07,21,12,48,29.10
2006,07,21,12,49,28.90
2006,07,21,12,50,28.90
2006,07,21,12,51,29.00
2006,07,21,12,52,29.10
2006,07,21,12,53,29.30
2006,07,21,12,54,29.40
2006,07,21,12,55,29.50
2006,07,21,12,56,29.60
2006,07,21,12,57,29.50
2006,07,21,12,58,29.50
2006,07,21,12,59,29.40
2006,07,21,13,00,29.30
2006,07,21,13,01,29.20
2006,07,21,13,02,29.20
2006,07,21,13,03,29.00
2006,07,21,13,04,28.70
2006,07,21,13,05,28.60
2006,07,21,13,06,28.60
2006,07,21,13,07,28.60
2006,07,21,13,08,28.70
2006,07,21,13,09,28.70
2006,07,21,13,10,28.70
2006,07,21,13,11,28.60
2006,07,21,13,12,28.60
2006,07,21,13,13,28.70
2006,07,21,13,14,28.90
2006,07,21,13,15,29.00
2006,07,21,13,16,29.00
2006,07,21,13,17,29.10
2006,07,21,13,18,29.30
2006,07,21,13,19,29.40
2006,07,21,13,20,29.60
2006,07,21,13,21,29.80
2006,07,21,13,22,29.80
2006,07,21,13,23,29.90
2006,07,21,13,24,29.90
2006,07,21,13,25,29.80
2006,07,21,13,26,29.80
2006,07,21,13,27,29.70
2006,07,21,13,28,29.60
2006,07,21,13,29,29.50
2006,07,21,13,30,29.40
2006,07,21,13,31,29.40
2006,07,21,13,32,29.40
2006,07,21,13,33,29.30
2006,07,21,13,34,29.20
2006,07,21,13,35,29.10
2006,07,21,13,36,29.10
2006,07,21,13,37,29.10
2006,07,21,13,38,29.10
2006,07,21,13,39,29.20
2006,07,21,13,40,29.30
2006,07,21,13,41,29.40
2006,07,21,13,42,29.50
2006,07,21,13,43,29.60
2006,07,21,13,44,29.60
2006,07,21,13,45,29.60
2006,07,21,13,46,29.60
2006,07,21,13,47,29.60
2006,07,21,13,48,29.50
2006,07,21,13,49,29.40
2006,07,21,13,50,29.30
2006,07,21,13,51,29.30
2006,07,21,13,52,29.40
2006,07,21,13,53,29.50
2006,07,21,13,54,29.60
2006,07,21,13,55,29.60
2006,07,21,13,56,29.70
2006,07,21,13,57,29.80
2006,07,21,13,58,29.80
2006,07,21,13,59,29.90
2006,07,21,14,00,30.00
2006,07,21,14,01,30.00
2006,07,21,14,02,30.00
2006,07,21,14,03,29.90
2006,07,21,14,04,29.80
2006,07,21,14,05,29.60
2006,07,21,14,06,29.50
2006,07,21,14,07,29.40
2006,07,21,14,08,29.10
2006,07,21,14,09,28.80
2006,07,21,14,10,28.50
2006,07,21,14,11,28.30
2006,07,21,14,12,28.40
2006,07,21,14,13,28.50
2006,07,21,14,14,28.60
2006,07,21,14,15,28.60
2006,07,21,14,16,28.50
2006,07,21,14,17,28.40
2006,07,21,14,18,28.40
2006,07,21,14,19,28.30
2006,07,21,14,20,28.20
2006,07,21,14,21,28.20
2006,07,21,14,22,28.30
2006,07,21,14,23,28.30
2006,07,21,14,24,28.30
2006,07,21,14,25,28.20
2006,07,21,14,26,28.10
2006,07,21,14,27,28.10
2006,07,21,14,28,28.20
2006,07,21,14,29,28.30
2006,07,21,14,30,28.40
2006,07,21,14,31,28.40
2006,07,21,14,32,28.30
2006,07,21,14,33,28.40
2006,07,21,14,34,28.50
2006,07,21,14,35,28.60
2006,07,21,14,36,28.70
2006,07,21,14,37,28.70
2006,07,21,14,38,28.90
2006,07,21,14,39,29.00
2006,07,21,14,40,29.10
2006,07,21,14,41,29.30
2006,07,21,14,42,29.40
2006,07,21,14,43,29.40
2006,07,21,14,44,29.30
2006,07,21,14,45,29.20
2006,07,21,14,46,29.20
2006,07,21,14,47,29.20
2006,07,21,14,48,29.20
2006,07,21,14,49,29.30
2006,07,21,14,50,29.30
2006,07,21,14,51,29.30
2006,07,21,14,52,29.40
2006,07,21,14,53,29.60
2006,07,21,14,54,29.70
2006,07,21,14,55,29.90
2006,07,21,14,56,30.00
2006,07,21,14,57,30.10
2006,07,21,14,58,30.10
2006,07,21,14,59,30.00
2006,07,21,15,00,30.00
2006,07,21,15,01,30.00
2006,07,21,15,02,30.00
2006,07,21,15,03,30.10
2006,07,21,15,04,30.20
2006,07,21,15,05,30.20
2006,07,21,15,06,30.20
2006,07,21,15,07,30.30
2006,07,21,15,08,30.20
2006,07,21,15,09,30.10
2006,07,21,15,10,30.00
2006,07,21,15,11,30.00
2006,07,21,15,12,30.10
2006,07,21,15,13,30.10
2006,07,21,15,14,30.20
2006,07,21,15,15,30.30
2006,07,21,15,16,30.50
2006,07,21,15,17,30.50
2006,07,21,15,18,30.40
2006,07,21,15,19,30.30
2006,07,21,15,20,30.20
2006,07,21,15,21,30.10
2006,07,21,15,22,29.90
2006,07,21,15,23,29.60
2006,07,21,15,24,29.30
2006,07,21,15,25,29.20
2006,07,21,15,26,29.20
2006,07,21,15,27,29.00
2006,07,21,15,28,28.90
2006,07,21,15,29,28.80
2006,07,21,15,30,28.70
2006,07,21,15,31,28.80
2006,07,21,15,32,28.90
2006,07,21,15,33,28.90
2006,07,21,15,34,28.80
2006,07,21,15,35,28.90
2006,07,21,15,36,29.00
2006,07,21,15,37,29.00
2006,07,21,15,38,29.00
2006,07,21,15,39,29.00
2006,07,21,15,40,29.00
2006,07,21,15,41,29.10
2006,07,21,15,42,29.10
2006,07,21,15,43,29.20
2006,07,21,15,44,29.20
2006,07,21,15,45,29.30
2006,07,21,15,46,29.30
2006,07,21,15,47,29.30
2006,07,21,15,48,29.30
2006,07,21,15,49,29.20
2006,07,21,15,50,29.20
2006,07,21,15,51,29.10
2006,07,21,15,52,29.00
2006,07,21,15,53,28.90
2006,07,21,15,54,29.00
2006,07,21,15,55,29.00
2006,07,21,15,56,29.10
2006,07,21,15,57,29.20
2006,07,21,15,58,29.30
2006,07,21,15,59,29.50
2006,07,21,16,00,29.60
2006,07,21,16,01,29.60
2006,07,21,16,02,29.60
2006,07,21,16,03,29.60
2006,07,21,16,04,29.60
2006,07,21,16,05,29.60
2006,07,21,16,06,29.80
2006,07,21,16,07,30.00
2006,07,21,16,08,30.20
2006,07,21,16,09,30.40
2006,07,21,16,10,30.40
2006,07,21,16,11,30.50
2006,07,21,16,12,30.50
2006,07,21,16,13,30.60
2006,07,21,16,14,30.60
2006,07,21,16,15,30.60
2006,07,21,16,16,30.70
2006,07,21,16,17,30.70
2006,07,21,16,18,30.70
2006,07,21,16,19,30.70
2006,07,21,16,20,30.80
2006,07,21,16,21,30.90
2006,07,21,16,22,31.00
2006,07,21,16,23,31.10
2006,07,21,16,24,31.10
2006,07,21,16,25,31.10
2006,07,21,16,26,31.20
2006,07,21,16,27,31.30
2006,07,21,16,28,31.30
2006,07,21,16,29,31.30
2006,07,21,16,30,31.50
2006,07,21,16,31,31.60
2006,07,21,16,32,31.70
2006,07,21,16,33,31.80
2006,07,21,16,34,31.90
2006,07,21,16,35,32.00
2006,07,21,16,36,32.00
2006,07,21,16,37,32.10
2006,07,21,16,38,32.00
2006,07,21,16,39,32.00
2006,07,21,16,40,31.90
2006,07,21,16,41,31.80
2006,07,21,16,42,31.70
2006,07,21,16,43,31.70
2006,07,21,16,44,31.60
2006,07,21,16,45,31.60
2006,07,21,16,46,31.60
2006,07,21,16,47,31.70
2006,07,21,16,48,31.80
2006,07,21,16,49,31.90
2006,07,21,16,50,31.90
2006,07,21,16,51,31.90
2006,07,21,16,52,31.70
2006,07,21,16,53,31.60
2006,07,21,16,54,31.60
2006,07,21,16,55,31.60
2006,07,21,16,56,31.70
2006,07,21,16,57,31.70
2006,07,21,16,58,31.70
2006,07,21,16,59,31.80
2006,07,21,17,00,31.80
2006,07,21,17,01,31.90
2006,07,21,17,02,31.90
2006,07,21,17,03,32.00
2006,07,21,17,04,32.10
2006,07,21,17,05,32.10
2006,07,21,17,06,32.00
2006,07,21,17,07,31.90
2006,07,21,17,08,31.90
2006,07,21,17,09,31.90
2006,07,21,17,10,31.90
2006,07,21,17,11,31.80
2006,07,21,17,12,31.70
2006,07,21,17,13,31.70
2006,07,21,17,14,31.70
2006,07,21,17,15,31.70
2006,07,21,17,16,31.70
2006,07,21,17,17,31.70
2006,07,21,17,18,31.80
2006,07,21,17,19,31.80